Volver al catálogo

EUTE 1-F4

ECS 4

ActivoComunicacionesGEO
NORAD 18351·PAYLOAD·🇪🇺 EU

Lanzado Sep 16, 1987 desde Guiana Space Centre

Loading…

TLE

ActualizadoSource: Space-Track

Época: Sep 14, 2026, 10:43 UTC

1 18351U 87078B   26257.44720279 -.00000262  00000-0  00000-0 0  9996
2 18351  13.7666 341.4935 0008072  41.0869 294.2302  0.98691545127631

Sigue EUTE 1-F4 en tiempo real con AllMySat

Download on the App Store